Weather Roundup
Issued by NWS Chicago, IL

Home | Current Version | Previous Version | Text Only | Print | Product List | Glossary Off
Versions: 1 2 3 4 5 6 7 8 9 10 11 12 13 14 15 16 17 18 19 20 21 22 23 24 25 26 27 28 29 30 31 32 33 34 35 36 37 38 39 40 41 42 43 44 45 46 47 48 49 50

000
NZUS59 KLOT 180808
HRRLOT

CHICAGO AREA WEATHER ROUNDUP
NATIONAL WEATHER SERVICE CHICAGO/ROMEOVILLE IL
200 AM CST MON DEC 18 2017

NOTE: "FAIR" INDICATES FEW OR NO CLOUDS BELOW 12,000 FEET WITH NO
SIGNIFICANT WEATHER AND/OR OBSTRUCTIONS TO VISIBILITY.

* THESE STATIONS ARE NOT UNDER NWS QUALITY CONTROL. THEY ALSO MAY NOT
  REPORT WEATHER SUCH AS PRECIPITATION OR FOG.

ILZ005-006-012>014-019>023-180900-
NORTHEAST ILLINOIS

CITY           SKY/WX    TMP DP  RH WIND       PRES   REMARKS
OHARE          DRIZZLE   42  38  85 SW10      29.93F FOG
MIDWAY         CLOUDY    43  40  89 SW10      29.94F
AURORA         CLOUDY    41  40  96 SW8       29.94S FOG
LANSING*       CLOUDY    41  39  93 SW9       29.96F
JOLIET*        CLOUDY    44  42  93 SW6       29.95F
WAUKEGAN       CLOUDY    37  35  92 CALM      29.92R FOG
DUPAGE AIRPORT CLOUDY    40  40 100 SW8       29.93F FOG
WHEELING       CLOUDY    42  40  92 SW8       29.94F FOG
KANKAKEE*      CLOUDY    42  39  88 SW10      29.99S
MORRIS*        CLOUDY    42  40  91 SW7       29.96R
LEWIS AIRPORT* CLOUDY    42  40  92 SW9       29.95S
NORTHERLY ISL    N/A     43  37  79 S10         N/A
$$

WIZ051-052-058>065-066-070>072-180900-
SOUTHEAST WISCONSIN

CITY           SKY/WX    TMP DP  RH WIND       PRES   REMARKS
MILWAUKEE      LGT RAIN  35  34  96 CALM      29.92F VSB 1
KENOSHA*       CLOUDY    36  33  89 CALM      29.93R FOG
RACINE*        MIX PCPN  34  34 100 CALM      29.94S VSB 3/4
BURLINGTON     MIX PCPN  46  46 100 CALM      29.93R VSB 1/2
WAUKESHA       DRZL/FOG  32  30  93 CALM      29.93S VSB 1
WEST BEND      CLOUDY    32  32 100 CALM      29.91S FOG
$$

INZ001>003-010>013-019-020-180900-
NORTHWEST INDIANA

CITY           SKY/WX    TMP DP  RH WIND       PRES   REMARKS
GARY*          CLOUDY    44  38  82 SW6       29.96F
MICHIGAN CITY* NOT AVBL
RENSSELAER*    NOT AVBL
VALPARAISO     CLOUDY    42  39  89 SW10      29.97F
$$

LMZ740>746-180900-
SOUTHERN LAKE MICHIGAN

STATION/POSITION TIME  SKY/WX   TEMP WIND        PRES    VSBY
                                AIR  DIR/SP/G
                 (UTC)          (F)  (DEG/KT/KT) (MB)    (MI)
HARRISON CRIB    0740            43  200/ 11/ 12   N/A
BURNHAM HARBOR   0800            43  180/  9/ 10   N/A
CALUMET HARBOR   0748            42  190/ 10/ 13 1013.5F
BURNS HARBOR     0740            42  200/ 11/ 15 1014.9F
MICHIGAN CITY    0740            42  190/ 12/ 13   N/A
$$

ABBREVIATIONS USED IN REMARKS
   TC - TEMPERATURE IN CELSIUS
  WCI - WIND CHILL INDEX
   HX - HEAT INDEX
  VSB - VISIBILITY
$$



USA.gov is the U.S. government's official web portal to all federal, state and local government web resources and services.